Regional Weather Roundup
Issued by NWS

Home | Current Version | Previous Version | Graphics & Text | Print | Product List | Glossary Off
Versions: 1 2 3 4 5 6 7 8 9 10 11 12 13 14 15 16 17 18 19 20 21 22 23 24 25 26 27 28 29 30 31 32 33 34 35 36 37 38 39 40 41 42 43 44 45 46 47 48 49 50

000
ASUS43 KLSX 230407
RWRMO

WEATHER SUMMARY FOR MISSOURI
NATIONAL WEATHER SERVICE SPRINGFIELD MO
1100 PM CDT SUN OCT 22 2017

NOTE: "FAIR" INDICATES FEW OR NO CLOUDS BELOW 12,000 FEET WITH NO
       SIGNIFICANT WEATHER AND/OR OBSTRUCTIONS TO VISIBILITY.
       CURRENT SKY AND/OR WEATHER CONDITIONS ARE NOT AVAILABLE FOR
       CHILLICOTHE AND FARMINGTON.

MOZ001>031-035>038-043-044-053-054-230500-
...NORTHERN AND WESTERN MISSOURI...

CITY           SKY/WX    TMP DP  RH WIND       PRES   REMARKS
KANSAS CTY INT CLEAR     45  40  82 S8        30.06S
KANSAS C DTWN  CLEAR     50  46  86 W3        30.07S
LEE`S SUMMIT   CLEAR     51  42  71 S6        30.07F
ST JOSEPH      CLEAR     43  43 100 CALM      30.05F
CHILLICOTHE      N/A     45  45 100 CALM      30.07F
KIRKSVILLE     CLOUDY    48  48 100 W5        30.06F

$$
MOZ066>068-077>081-088>096-101>105-230500-
...SOUTHWEST MISSOURI...

CITY           SKY/WX    TMP DP  RH WIND       PRES   REMARKS
SPRINGFIELD    PTCLDY    52  49  89 CALM      30.08F
JOPLIN         CLEAR     46  46 100 MISG      30.10F
BRANSON        CLOUDY    50  48  93 CALM      30.11S

$$
MOZ032>034-039>042-045>050-055>058-069>072-230500-
...CENTRAL MISSOURI...

CITY           SKY/WX    TMP DP  RH WIND       PRES   REMARKS
COLUMBIA       CLOUDY    51  50  96 W5        30.07F
JEFFERSON CITY CLOUDY    53  50  89 CALM      30.07F
ROLLA          LGT RAIN  50  50 100 NW6       30.06F
SEDALIA        CLOUDY    51  51 100 SW5       30.07F
WHITEMAN AFB   CLEAR     45  44  97 CALM      30.03F
WARRENSBURG    CLEAR     43  41  93 CALM      30.07F
OSAGE BEACH    CLOUDY    51  49  92 CALM      30.08F

$$
MOZ051-052-059>065-230500-
...EAST CENTRAL MISSOURI...

CITY           SKY/WX    TMP DP  RH WIND       PRES   REMARKS
ST LOUIS INTL  LGT RAIN  52  52 100 NW9       30.02F FOG
SPIRIT OF STL  LGT RAIN  53  52  96 NW10      30.03F
ST CHARLES     LGT RAIN  53  51  93 NW8       30.02F

$$
MOZ072>076-082>087-097>100-106>115-230500-
...SOUTH CENTRAL AND SOUTHEAST MISSOURI...

CITY           SKY/WX    TMP DP  RH WIND       PRES   REMARKS
CAPE GIRARDEAU HVY RAIN  54  52  93 N12       29.92F FOG
FARMINGTON     RAIN      51  50  96 NW10      30.00F
POPLAR BLUFF   CLOUDY    54  53  97 NW10      29.98S
WEST PLAINS    LGT RAIN  50  48  93 NW10      30.07F

$$



USA.gov is the U.S. government's official web portal to all federal, state and local government web resources and services.